When you browse on this site, cookies collect data to enhance your experience and personalize the content and advertising you see.
Visit our Privacy Policy to learn more. By continuing to use the site, you agree to this use of cookies and data.
  • In Deutschland
  • Länderverzeichnis
  • Für 7 Tage
  • Wassertemperatur
  • Wetterkarte
  • Widgets
  • user-avatar
    Anmelden

    Stündliche Wetter Kytlym

    Heute, 28 Januar, Dienstag

    Zeit Temperatur Niederschläge Wind Luftdruck Luftfeuchtigkeit
    00:00 -19°C° 0 mm 1 m/S 715 mmHg 96%
    01:00 -19°C° 0 mm 1 m/S 716 mmHg 96%
    02:00 -20°C° 0 mm 1 m/S 717 mmHg 96%
    03:00 -21°C° 0 mm 1 m/S 718 mmHg 95%
    04:00 -21°C° 0 mm 1 m/S 718 mmHg 96%
    05:00 -22°C° 0 mm 1 m/S 719 mmHg 96%
    06:00 -22°C° 0 mm 1 m/S 719 mmHg 95%
    07:00 -26°C° 0 mm 2 m/S 720 mmHg 95%
    08:00 -26°C° 0 mm 2 m/S 720 mmHg 95%
    09:00 -25°C° 0 mm 2 m/S 721 mmHg 95%
    10:00 -25°C° 0 mm 2 m/S 722 mmHg 95%
    11:00 -24°C° 0 mm 2 m/S 722 mmHg 93%
    12:00 -23°C° 0 mm 2 m/S 723 mmHg 92%
    13:00 -21°C° 0 mm 2 m/S 724 mmHg 91%
    14:00 -23°C° 0 mm 2 m/S 724 mmHg 92%
    15:00 -24°C° 0 mm 2 m/S 724 mmHg 93%
    16:00 -25°C° 0 mm 2 m/S 725 mmHg 94%
    17:00 -27°C° 0 mm 2 m/S 725 mmHg 94%
    18:00 -28°C° 0 mm 2 m/S 726 mmHg 95%
    19:00 -29°C° 0 mm 2 m/S 726 mmHg 95%
    20:00 -29°C° 0 mm 2 m/S 727 mmHg 95%
    21:00 -29°C° 0 mm 2 m/S 727 mmHg 94%
    22:00 -30°C° 0 mm 2 m/S 727 mmHg 94%
    23:00 -30°C° 0 mm 2 m/S 728 mmHg 93%

    Morgen, 29 Januar, Mittwoch

    Zeit Temperatur Niederschläge Wind Luftdruck Luftfeuchtigkeit
    00:00 -29°C° 0 mm 2 m/S 728 mmHg 92%
    01:00 -29°C° 0 mm 2 m/S 729 mmHg 91%
    02:00 -29°C° 0 mm 2 m/S 729 mmHg 91%
    03:00 -29°C° 0 mm 2 m/S 729 mmHg 91%
    04:00 -28°C° 0 mm 2 m/S 730 mmHg 91%
    05:00 -28°C° 0 mm 2 m/S 730 mmHg 92%
    06:00 -28°C° 0 mm 2 m/S 730 mmHg 92%
    07:00 -28°C° 0 mm 2 m/S 730 mmHg 93%
    08:00 -27°C° 0 mm 2 m/S 731 mmHg 92%
    09:00 -26°C° 0 mm 2 m/S 731 mmHg 92%
    10:00 -25°C° 0 mm 2 m/S 731 mmHg 92%
    11:00 -23°C° 0 mm 2 m/S 732 mmHg 90%
    12:00 -21°C° 0 mm 2 m/S 732 mmHg 89%
    13:00 -17°C° 0 mm 1 m/S 732 mmHg 88%
    14:00 -18°C° 0 mm 1 m/S 732 mmHg 89%
    15:00 -20°C° 0 mm 1 m/S 732 mmHg 91%
    16:00 -21°C° 0 mm 1 m/S 732 mmHg 93%
    17:00 -21°C° 0 mm 1 m/S 732 mmHg 92%
    18:00 -21°C° 0 mm 1 m/S 732 mmHg 91%
    19:00 -22°C° 0 mm 1 m/S 732 mmHg 90%
    20:00 -21°C° 0 mm 1 m/S 732 mmHg 89%
    21:00 -20°C° 0 mm 0 m/S 732 mmHg 89%
    22:00 -20°C° 0 mm 0 m/S 732 mmHg 88%
    23:00 -19°C° 0 mm 0 m/S 732 mmHg 87%

    übermorgen, 30 Januar, Donnerstag

    Zeit Temperatur Niederschläge Wind Luftdruck Luftfeuchtigkeit
    00:00 -19°C° 0 mm 0 m/S 732 mmHg 86%
    01:00 -18°C° 0 mm 0 m/S 732 mmHg 86%
    02:00 -18°C° 0 mm 0 m/S 732 mmHg 87%
    03:00 -18°C° 0 mm 0 m/S 732 mmHg 89%
    04:00 -18°C° 0 mm 1 m/S 732 mmHg 91%
    05:00 -18°C° 0.1 mm 1 m/S 732 mmHg 93%
    06:00 -18°C° 0.1 mm 1 m/S 732 mmHg 96%
    07:00 -19°C° 0.1 mm 1 m/S 732 mmHg 98%
    08:00 -19°C° 0.1 mm 1 m/S 732 mmHg 98%
    09:00 -19°C° 0.1 mm 1 m/S 732 mmHg 97%
    10:00 -18°C° 0.1 mm 1 m/S 732 mmHg 96%
    11:00 -18°C° 0.1 mm 1 m/S 731 mmHg 95%
    12:00 -17°C° 0.1 mm 1 m/S 731 mmHg 94%
    13:00 -17°C° 0.1 mm 1 m/S 731 mmHg 93%
    14:00 -18°C° 0.1 mm 1 m/S 731 mmHg 95%
    15:00 -18°C° 0.1 mm 1 m/S 731 mmHg 96%
    16:00 -19°C° 0.1 mm 1 m/S 731 mmHg 98%
    17:00 -19°C° 0 mm 1 m/S 731 mmHg 98%
    18:00 -20°C° 0 mm 1 m/S 731 mmHg 98%
    19:00 -20°C° 0 mm 1 m/S 730 mmHg 99%
    20:00 -20°C° 0 mm 1 m/S 730 mmHg 99%
    21:00 -21°C° 0 mm 1 m/S 730 mmHg 98%
    22:00 -21°C° 0 mm 1 m/S 730 mmHg 98%
    23:00 -21°C° 0 mm 1 m/S 730 mmHg 98%

    31 Januar, Freitag

    Zeit Temperatur Niederschläge Wind Luftdruck Luftfeuchtigkeit
    00:00 -21°C° 0 mm 1 m/S 730 mmHg 98%
    01:00 -21°C° 0 mm 1 m/S 730 mmHg 98%
    02:00 -21°C° 0.1 mm 1 m/S 730 mmHg 98%
    03:00 -21°C° 0.1 mm 1 m/S 730 mmHg 98%
    04:00 -20°C° 0.1 mm 1 m/S 730 mmHg 98%
    05:00 -20°C° 0.1 mm 1 m/S 730 mmHg 98%
    06:00 -21°C° 0.1 mm 1 m/S 730 mmHg 98%
    07:00 -21°C° 0.1 mm 1 m/S 729 mmHg 98%
    08:00 -20°C° 0.1 mm 1 m/S 729 mmHg 98%
    09:00 -20°C° 0.1 mm 1 m/S 729 mmHg 97%
    10:00 -20°C° 0.1 mm 1 m/S 729 mmHg 97%
    11:00 -19°C° 0.1 mm 1 m/S 729 mmHg 96%
    12:00 -19°C° 0.1 mm 1 m/S 729 mmHg 96%
    13:00 -18°C° 0.1 mm 1 m/S 729 mmHg 95%
    14:00 -18°C° 0.2 mm 1 m/S 728 mmHg 96%
    15:00 -18°C° 0.2 mm 1 m/S 728 mmHg 96%
    16:00 -18°C° 0.2 mm 1 m/S 728 mmHg 97%
    17:00 -18°C° 0.2 mm 1 m/S 728 mmHg 97%
    18:00 -19°C° 0.2 mm 1 m/S 728 mmHg 97%
    19:00 -19°C° 0.2 mm 1 m/S 728 mmHg 97%
    20:00 -19°C° 0.1 mm 1 m/S 727 mmHg 97%
    21:00 -19°C° 0.1 mm 1 m/S 727 mmHg 98%
    22:00 -19°C° 0.1 mm 1 m/S 727 mmHg 98%
    23:00 -19°C° 0.3 mm 1 m/S 727 mmHg 97%

    1 Februar, Samstag

    Zeit Temperatur Niederschläge Wind Luftdruck Luftfeuchtigkeit
    00:00 -19°C° 0.3 mm 1 m/S 726 mmHg 97%
    01:00 -20°C° 0.3 mm 2 m/S 726 mmHg 97%
    02:00 -20°C° 0.4 mm 2 m/S 726 mmHg 97%
    03:00 -20°C° 0.4 mm 2 m/S 726 mmHg 97%
    04:00 -20°C° 0.4 mm 2 m/S 726 mmHg 97%
    05:00 -20°C° 0.3 mm 2 m/S 725 mmHg 97%
    06:00 -20°C° 0.3 mm 2 m/S 725 mmHg 97%
    07:00 -20°C° 0.3 mm 2 m/S 725 mmHg 97%
    08:00 -20°C° 0.2 mm 2 m/S 725 mmHg 97%
    09:00 -20°C° 0.2 mm 2 m/S 725 mmHg 96%
    10:00 -20°C° 0.2 mm 2 m/S 725 mmHg 96%
    11:00 -19°C° 0.2 mm 2 m/S 724 mmHg 96%
    12:00 -19°C° 0.2 mm 2 m/S 724 mmHg 95%
    13:00 -18°C° 0.2 mm 2 m/S 724 mmHg 95%
    14:00 -18°C° 0.3 mm 2 m/S 724 mmHg 96%
    15:00 -18°C° 0.3 mm 2 m/S 724 mmHg 96%
    16:00 -18°C° 0.3 mm 2 m/S 724 mmHg 96%
    17:00 -19°C° 0.4 mm 2 m/S 724 mmHg 96%
    18:00 -19°C° 0.4 mm 2 m/S 724 mmHg 96%
    19:00 -19°C° 0.4 mm 2 m/S 724 mmHg 97%
    20:00 -19°C° 0.2 mm 2 m/S 724 mmHg 97%
    21:00 -17°C° 0.2 mm 1 m/S 724 mmHg 97%
    22:00 -17°C° 0.2 mm 1 m/S 723 mmHg 97%
    23:00 -17°C° 0.1 mm 1 m/S 723 mmHg 97%

    2 Februar, Sonntag

    Zeit Temperatur Niederschläge Wind Luftdruck Luftfeuchtigkeit
    00:00 -16°C° 0.1 mm 1 m/S 723 mmHg 97%
    01:00 -16°C° 0.1 mm 1 m/S 723 mmHg 97%
    02:00 -16°C° 0.2 mm 1 m/S 723 mmHg 97%
    03:00 -16°C° 0.2 mm 1 m/S 723 mmHg 97%
    04:00 -16°C° 0.2 mm 1 m/S 723 mmHg 97%
    05:00 -16°C° 0.2 mm 1 m/S 723 mmHg 97%
    06:00 -16°C° 0.2 mm 1 m/S 723 mmHg 97%
    07:00 -16°C° 0.2 mm 1 m/S 723 mmHg 97%
    08:00 -15°C° 0.3 mm 1 m/S 723 mmHg 96%
    09:00 -15°C° 0.3 mm 1 m/S 723 mmHg 96%
    10:00 -14°C° 0.3 mm 1 m/S 723 mmHg 95%
    11:00 -14°C° 0.1 mm 1 m/S 724 mmHg 94%
    12:00 -13°C° 0.1 mm 1 m/S 724 mmHg 93%
    13:00 -12°C° 0.1 mm 1 m/S 724 mmHg 92%
    14:00 -13°C° 0 mm 1 m/S 724 mmHg 94%
    15:00 -14°C° 0 mm 1 m/S 724 mmHg 96%
    16:00 -15°C° 0 mm 0 m/S 724 mmHg 97%
    17:00 -16°C° 0 mm 0 m/S 724 mmHg 98%
    18:00 -17°C° 0 mm 0 m/S 724 mmHg 98%
    19:00 -18°C° 0 mm 0 m/S 724 mmHg 98%
    20:00 -18°C° 0 mm 0 m/S 724 mmHg 99%
    21:00 -18°C° 0 mm 0 m/S 724 mmHg 99%
    22:00 -18°C° 0 mm 0 m/S 725 mmHg 99%
    23:00 -18°C° 0 mm 0 m/S 725 mmHg 99%
    Mehr zeigen